Hartford, CT

12:29 AM EDT on June 29, 2017 (GMT -0400)
Hartford-brainard

Weather History for KHFD - May, 2013

Change the Weather History Date:

Friday, May 10, 2013

  Actual Average Record
Temperature  
Mean Temperature 65 °F -  
Max Temperature 80 °F 66 °F 92 °F (1965)
Min Temperature 51 °F 45 °F 28 °F (1947)
Growing Degree Days 15 (Base 50)    
Moisture  
Dew Point 54 °F    
Average Humidity 84    
Maximum Humidity 100    
Minimum Humidity 39    
Precipitation  
Precipitation 0.01 in - - ()
Sea Level Pressure  
Sea Level Pressure 29.94 in    
Wind  
Wind Speed 2 mph (South)    
Max Wind Speed 13 mph    
Max Gust Speed 16 mph    
Visibility 6 miles    
Events Fog    
Averages and records for this station are not official NWS values.
T = Trace of Precipitation, MM = Missing Value Source: NWS Daily Summary

Daily Weather History Graph

Daily Weather History Graph

Search for Another Location

Airport or City:

Trip Planner

Search our weather history database for the weather conditions in past years. The results will help you decide how hot, cold, wet, or windy it might be!

Date:

Astronomy

May. 10, 2013 Rise Set
Actual Time 5:35 AM EDT 7:58 PM EDT
Civil Twilight 5:04 AM EDT 8:30 PM EDT
Nautical Twilight 4:25 AM EDT 9:08 PM EDT
Astronomical Twilight 3:43 AM EDT 9:52 PM EDT
Moon 5:58 AM EDT (5/10) 8:46 PM EDT (5/10)
Length of Visible Light 15h 25m
Length of Day
14h 22m
New Moon, 0% of the Moon is Illuminated
May 10
New Moon
May 18
First Quarter
May 25
Full
May 31
Last Quarter
Jun 8
New

Hourly Weather History & Observations

Time (EDT) Temp. Dew Point Humidity Pressure Visibility Wind Dir Wind Speed Gust Speed Precip Events Conditions
12:01 AM 57.2 °F 57.2 °F 100% 29.93 in 0.8 mi Calm Calm - N/A   Mist
12:22 AM 57.2 °F 57.2 °F 100% 29.93 in 0.5 mi SSE 3.5 mph - N/A Fog Fog
12:36 AM 57.2 °F 55.4 °F 94% 29.92 in 3.0 mi SE 4.6 mph - N/A   Mostly Cloudy
1:03 AM 57.2 °F 55.4 °F 94% 29.93 in 2.5 mi South 3.5 mph - N/A   Mostly Cloudy
1:08 AM 57.2 °F 55.4 °F 94% 29.92 in 4.0 mi Calm Calm - N/A   Mostly Cloudy
1:16 AM 55.4 °F 55.4 °F 100% 29.93 in 2.5 mi Calm Calm - N/A   Mostly Cloudy
1:21 AM 55.4 °F 55.4 °F 100% 29.92 in 0.8 mi Calm Calm - N/A   Mist
1:53 AM 55.9 °F 55.9 °F 100% 29.92 in 0.2 mi South 3.5 mph - N/A Fog Fog
2:17 AM 55.4 °F 55.4 °F 100% 29.92 in 1.2 mi Calm Calm - N/A   Overcast
2:45 AM 55.4 °F 55.4 °F 100% 29.92 in 3.0 mi Calm Calm - N/A   Overcast
2:53 AM 55.0 °F 55.0 °F 100% 29.93 in 6.0 mi Calm Calm - N/A   Mostly Cloudy
3:03 AM 55.4 °F 53.6 °F 94% 29.93 in 5.0 mi Calm Calm - N/A   Scattered Clouds
3:53 AM 54.0 °F 54.0 °F 100% 29.93 in 6.0 mi Calm Calm - N/A   Scattered Clouds
4:02 AM 53.6 °F 53.6 °F 100% 29.93 in 4.0 mi SSE 3.5 mph - N/A   Mostly Cloudy
4:06 AM 53.6 °F 53.6 °F 100% 29.93 in 1.5 mi Calm Calm - N/A   Mostly Cloudy
4:15 AM 53.6 °F 53.6 °F 100% 29.93 in 0.5 mi Calm Calm - N/A Fog Fog
4:35 AM 53.6 °F 53.6 °F 100% 29.94 in 2.0 mi Calm Calm - N/A   Overcast
4:43 AM 53.6 °F 53.6 °F 100% 29.94 in 7.0 mi Calm Calm - N/A   Mostly Cloudy
4:53 AM 53.1 °F 53.1 °F 100% 29.94 in 2.0 mi Calm Calm - 0.01 in   Scattered Clouds
4:56 AM 53.6 °F 53.6 °F 100% 29.94 in 1.0 mi Calm Calm - N/A   Mist
5:06 AM 53.6 °F 51.8 °F 94% 29.94 in 2.0 mi Calm Calm - N/A   Clear
5:17 AM 51.8 °F 51.8 °F 100% 29.94 in 1.8 mi South 3.5 mph - N/A   Partly Cloudy
5:21 AM 53.6 °F 51.8 °F 94% 29.95 in 3.0 mi SSE 3.5 mph - N/A   Partly Cloudy
5:49 AM 53.6 °F 53.6 °F 100% 29.94 in 2.5 mi Calm Calm - N/A   Mostly Cloudy
5:53 AM 53.1 °F 53.1 °F 100% 29.95 in 1.0 mi Calm Calm - N/A   Mostly Cloudy
6:00 AM 53.6 °F 53.6 °F 100% 29.95 in 0.2 mi Calm Calm - N/A Fog Fog
6:13 AM 53.6 °F 53.6 °F 100% 29.96 in 2.0 mi Calm Calm - N/A   Mostly Cloudy
6:20 AM 53.6 °F 53.6 °F 100% 29.96 in 8.0 mi Calm Calm - N/A   Scattered Clouds
6:53 AM 54.0 °F 54.0 °F 100% 29.97 in 9.0 mi Calm Calm - N/A   Clear
7:53 AM 59.0 °F 57.0 °F 93% 29.98 in 10.0 mi Calm Calm - N/A   Clear
8:53 AM 63.0 °F 55.9 °F 78% 29.98 in 10.0 mi Calm Calm - N/A   Clear
9:53 AM 66.9 °F 55.9 °F 68% 29.97 in 10.0 mi Calm Calm - N/A   Clear
10:53 AM 70.0 °F 57.0 °F 63% 29.98 in 10.0 mi Calm Calm - N/A   Clear
11:53 AM 73.0 °F 55.0 °F 53% 29.96 in 10.0 mi Calm Calm - N/A   Clear
12:53 PM 75.0 °F 55.0 °F 50% 29.94 in 10.0 mi Calm Calm - N/A   Clear
1:53 PM 77.0 °F 55.9 °F 48% 29.94 in 10.0 mi South 5.8 mph - N/A   Partly Cloudy
2:53 PM 79.0 °F 52.0 °F 39% 29.93 in 10.0 mi Variable 5.8 mph 16.1 mph N/A   Mostly Cloudy
3:53 PM 78.1 °F 54.0 °F 43% 29.91 in 10.0 mi South 9.2 mph - N/A   Partly Cloudy
4:53 PM 77.0 °F 54.0 °F 45% 29.91 in 10.0 mi South 12.7 mph - N/A   Clear
5:53 PM 75.0 °F 53.1 °F 46% 29.91 in 10.0 mi South 10.4 mph - N/A   Clear
6:53 PM 73.9 °F 53.1 °F 48% 29.91 in 10.0 mi South 8.1 mph - N/A   Clear
7:53 PM 71.1 °F 53.1 °F 53% 29.92 in 10.0 mi South 8.1 mph - N/A   Clear
8:53 PM 68.0 °F 54.0 °F 61% 29.93 in 10.0 mi South 4.6 mph - N/A   Clear
9:53 PM 66.9 °F 54.0 °F 63% 29.94 in 10.0 mi South 6.9 mph - N/A   Clear
10:53 PM 64.9 °F 55.0 °F 70% 29.93 in 10.0 mi South 5.8 mph - N/A   Partly Cloudy
11:53 PM 63.0 °F 55.0 °F 75% 29.91 in 10.0 mi SSE 6.9 mph - N/A   Clear